QPF
0.01 0.01 0.01 0.01 0.01 0.01 0.01 0.01 0.01 0.01 0.01 0.00 0.00 0.00 0.00 0.01 0.01 0.01 0.01 0.01 0.00 0.01 0.01 0.01 0.01 0.01 0.01 0.02 0.01 0.01 0.00 0.00 0.00 0.00 0.01 0.01 0.01 0.01 0.01 0.01 0.01 0.01 0.01
0.01 0.01 0.01 0.01 0.01 0.01 0.01 0.00 0.00 0.00 0.00 0.00 0.00 0.00 0.00 0.00 0.01 0.01 0.01 0.01 0.01 0.01 0.01 0.01 0.01 0.01 0.01 0.02 0.01 0.00 0.00 0.00 0.00 0.00 0.00 0.01 0.01 0.02 0.01 0.00 0.00 0.01 0.01
0.00 0.00 0.01 0.01 0.01 0.00 0.00 0.00 0.00 0.00 0.00 0.00 0.00 0.00 0.00 0.00 0.01 0.01 0.01 0.01 0.02 0.01 0.01 0.01 0.01 0.01 0.01 0.01 0.01 0.00 0.00 0.00 0.00 0.00 0.00 0.00 0.01 0.02 0.01 0.01 0.01 0.01 0.00
0.00 0.00 0.00 0.00 0.00 0.00 0.00 0.00 0.00 0.00 0.00 0.00 0.00 0.00 0.00 0.00 0.00 0.00 0.01 0.01 0.02 0.01 0.01 0.01 0.01 0.00 0.00 0.00 0.01 0.01 0.01 0.00 0.00 0.00 0.00 0.01 0.01 0.01 0.01 0.01 0.01 0.01 0.01
0.00 0.00 0.00 0.00 0.00 0.00 0.00 0.00 0.00 0.00 0.00 0.00 0.01 0.00 0.00 0.00 0.01 0.01 0.01 0.01 0.01 0.01 0.00 0.00 0.00 0.00 0.00 0.00 0.00 0.01 0.00 0.00 0.00 0.00 0.00 0.00 0.00 0.01 0.01 0.01 0.01 0.01 0.01
0.00 0.00 0.00 0.00 0.00 0.00 0.00 0.00 0.00 0.00 0.01 0.01 0.01 0.00 0.00 0.01 0.01 0.00 0.01 0.01 0.01 0.00 0.00 0.00 0.00 0.00 0.00 0.00 0.00 0.00 0.00 0.00 0.00 0.00 0.00 0.00 0.00 0.01 0.02 0.02 0.01 0.01 0.01
0.00 0.00 0.00 0.01 0.01 0.01 0.00 0.00 0.00 0.00 0.01 0.01 0.02 0.01 0.00 0.00 0.00 0.00 0.00 0.01 0.01 0.00 0.00 0.00 0.00 0.00 0.00 0.00 0.00 0.00 0.00 0.00 0.00 0.00 0.00 0.00 0.01 0.02 0.02 0.02 0.01 0.01 0.01
0.00 0.00 0.01 0.01 0.01 0.01 0.01 0.01 0.01 0.01 0.01 0.02 0.02 0.01 0.00 0.00 0.00 0.00 0.01 0.00 0.00 0.00 0.00 0.00 0.00 0.00 0.00 0.00 0.00 0.00 0.00 0.00 0.00 0.00 0.00 0.00 0.01 0.02 0.01 0.01 0.01 0.01 0.01
0.00 0.00 0.01 0.02 0.03 0.03 0.03 0.01 0.01 0.01 0.01 0.01 0.03 0.02 0.01 0.00 0.01 0.01 0.00 0.00 0.00 0.00 0.00 0.00 0.00 0.00 0.00 0.00 0.00 0.00 0.00 0.00 0.00 0.00 0.00 0.00 0.01 0.01 0.01 0.01 0.01 0.01 0.01
0.01 0.01 0.01 0.02 0.03 0.03 0.03 0.02 0.01 0.02 0.01 0.01 0.02 0.02 0.01 0.01 0.00 0.00 0.00 0.00 0.00 0.00 0.00 0.00 0.00 0.00 0.00 0.00 0.00 0.00 0.00 0.00 0.00 0.00 0.00 0.00 0.00 0.01 0.01 0.01 0.01 0.02 0.02
0.02 0.02 0.01 0.02 0.03 0.03 0.03 0.03 0.03 0.03 0.02 0.01 0.02 0.02 0.01 0.01 0.00 0.00 0.00 0.00 0.00 0.00 0.00 0.00 0.00 0.00 0.00 0.00 0.00 0.00 0.00 0.00 0.00 0.00 0.00 0.00 0.00 0.01 0.02 0.02 0.02 0.01 0.01
0.02 0.02 0.02 0.02 0.03 0.05 0.04 0.04 0.02 0.03 0.02 0.01 0.01 0.01 0.01 0.01 0.00 0.00 0.01 0.01 0.00 0.00 0.00 0.00 0.00 0.00 0.00 0.00 0.00 0.00 0.00 0.00 0.00 0.00 0.00 0.00 0.01 0.01 0.01 0.01 0.01 0.01 0.01
0.02 0.03 0.02 0.03 0.03 0.04 0.05 0.05 0.03 0.02 0.01 0.01 0.00 0.00 0.00 0.01 0.01 0.01 0.00 0.01 0.01 0.01 0.00 0.00 0.00 0.00 0.00 0.00 0.00 0.00 0.00 0.00 0.00 0.00 0.00 0.00 0.01 0.01 0.01 0.00 0.00 0.01 0.01
0.02 0.03 0.03 0.03 0.05 0.06 0.05 0.06 0.05 0.03 0.01 0.01 0.01 0.00 0.00 0.00 0.01 0.01 0.01 0.01 0.02 0.01 0.01 0.00 0.00 0.00 0.00 0.00 0.00 0.00 0.00 0.00 0.00 0.00 0.00 0.00 0.00 0.00 0.00 0.00 0.00 0.01 0.01
0.04 0.04 0.03 0.04 0.06 0.07 0.07 0.06 0.06 0.04 0.02 0.01 0.00 0.00 0.00 0.00 0.01 0.01 0.01 0.02 0.02 0.02 0.02 0.01 0.00 0.00 0.00 0.00 0.00 0.00 0.00 0.00 0.00 0.00 0.00 0.00 0.00 0.00 0.00 0.00 0.00 0.00 0.00
0.04 0.05 0.04 0.05 0.07 0.08 0.08 0.07 0.07 0.06 0.05 0.02 0.01 0.00 0.00 0.01 0.01 0.01 0.01 0.02 0.02 0.01 0.01 0.01 0.00 0.00 0.00 0.00 0.00 0.00 0.00 0.00 0.00 0.00 0.00 0.00 0.00 0.00 0.00 0.01 0.01 0.00 0.00
0.04 0.06 0.05 0.05 0.06 0.08 0.08 0.07 0.06 0.06 0.06 0.04 0.03 0.02 0.01 0.01 0.02 0.02 0.02 0.02 0.01 0.01 0.00 0.00 0.00 0.00 0.00 0.00 0.00 0.00 0.00 0.00 0.00 0.00 0.00 0.00 0.00 0.00 0.00 0.00 0.00 0.00 0.00
0.05 0.06 0.07 0.07 0.06 0.07 0.07 0.07 0.06 0.04 0.04 0.04 0.04 0.03 0.03 0.02 0.02 0.02 0.02 0.01 0.02 0.01 0.01 0.00 0.00 0.00 0.00 0.00 0.00 0.00 0.00 0.00 0.00 0.00 0.00 0.00 0.00 0.00 0.00 0.00 0.00 0.00 0.00
0.06 0.07 0.07 0.07 0.06 0.06 0.06 0.07 0.07 0.05 0.04 0.04 0.05 0.04 0.04 0.04 0.02 0.01 0.01 0.01 0.01 0.01 0.01 0.01 0.00 0.01 0.01 0.01 0.01 0.00 0.00 0.00 0.00 0.00 0.00 0.00 0.00 0.00 0.00 0.00 0.00 0.00 0.00
0.06 0.06 0.07 0.07 0.07 0.06 0.06 0.05 0.06 0.05 0.04 0.04 0.05 0.04 0.03 0.03 0.01 0.01 0.01 0.01 0.01 0.01 0.01 0.01 0.01 0.01 0.01 0.01 0.02 0.03 0.02 0.01 0.00 0.00 0.00 0.00 0.00 0.00 0.00 0.00 0.00 0.00 0.00
0.05 0.05 0.05 0.05 0.06 0.05 0.05 0.04 0.04 0.04 0.04 0.04 0.04 0.04 0.03 0.03 0.02 0.01 0.01 0.01 0.01 0.01 0.01 0.01 0.01 0.01 0.01 0.01 0.02 0.03 0.04 0.03 0.01 0.00 0.00 0.00 0.00 0.00 0.00 0.00 0.00 0.00 0.00
0.03 0.04 0.04 0.04 0.04 0.04 0.05 0.05 0.04 0.03 0.04 0.04 0.04 0.03 0.03 0.03 0.02 0.01 0.01 0.01 0.01 0.01 0.01 0.01 0.01 0.01 0.01 0.01 0.02 0.02 0.02 0.02 0.01 0.00 0.00 0.00 0.00 0.00 0.00 0.00 0.00 0.00 0.00
0.02 0.03 0.03 0.04 0.04 0.04 0.04 0.04 0.04 0.03 0.03 0.03 0.03 0.02 0.02 0.02 0.02 0.02 0.01 0.01 0.01 0.01 0.01 0.01 0.01 0.01 0.01 0.01 0.01 0.02 0.01 0.01 0.00 0.00 0.00 0.00 0.00 0.00 0.00 0.00 0.00 0.00 0.00
0.02 0.03 0.03 0.03 0.04 0.04 0.03 0.03 0.02 0.03 0.02 0.02 0.02 0.02 0.02 0.02 0.02 0.01 0.01 0.01 0.01 0.01 0.01 0.01 0.01 0.01 0.01 0.01 0.01 0.01 0.01 0.01 0.00 0.00 0.00 0.00 0.00 0.00 0.00 0.00 0.00 0.00 0.00
0.02 0.02 0.02 0.02 0.03 0.03 0.03 0.02 0.02 0.02 0.02 0.02 0.02 0.01 0.01 0.01 0.01 0.01 0.01 0.01 0.01 0.00 0.00 0.00 0.01 0.00 0.00 0.00 0.01 0.01 0.01 0.00 0.00 0.00 0.00 0.00 0.00 0.00 0.00 0.00 0.00 0.00 0.00
0.02 0.03 0.03 0.02 0.02 0.02 0.02 0.02 0.02 0.02 0.02 0.01 0.01 0.01 0.01 0.01 0.00 0.00 0.00 0.00 0.00 0.00 0.00 0.00 0.00 0.00 0.00 0.00 0.00 0.00 0.01 0.01 0.00 0.00 0.00 0.00 0.00 0.00 0.00 0.00 0.00 0.00 0.00
MSLP
1021.43 1021.19 1021.01 1020.95 1021.01 1021.16 1021.34 1021.47 1021.51 1021.41 1021.19 1020.90 1020.59 1020.32 1020.13 1020.04 1020.01 1020.03 1020.03 1019.98 1019.87 1019.68 1019.46 1019.23 1019.02 1018.86 1018.75 1018.67 1018.62 1018.56 1018.47 1018.35 1018.20 1018.04 1017.86 1017.69 1017.53 1017.37 1017.20 1017.01 1016.80 1016.57 1016.32
1021.25 1021.07 1020.96 1020.97 1021.09 1021.28 1021.49 1021.64 1021.68 1021.59 1021.39 1021.12 1020.85 1020.62 1020.48 1020.43 1020.45 1020.50 1020.52 1020.49 1020.37 1020.18 1019.94 1019.67 1019.42 1019.20 1019.03 1018.90 1018.80 1018.70 1018.60 1018.48 1018.35 1018.20 1018.06 1017.91 1017.75 1017.58 1017.38 1017.15 1016.88 1016.60 1016.32
1021.15 1021.02 1020.96 1021.01 1021.17 1021.40 1021.62 1021.79 1021.85 1021.78 1021.62 1021.39 1021.16 1020.98 1020.88 1020.86 1020.90 1020.95 1020.96 1020.91 1020.78 1020.57 1020.30 1020.01 1019.73 1019.48 1019.27 1019.10 1018.96 1018.84 1018.72 1018.61 1018.49 1018.38 1018.26 1018.12 1017.97 1017.78 1017.55 1017.28 1016.97 1016.65 1016.33
1021.15 1021.06 1021.04 1021.13 1021.31 1021.55 1021.78 1021.95 1022.02 1021.99 1021.86 1021.68 1021.50 1021.37 1021.29 1021.28 1021.29 1021.31 1021.29 1021.20 1021.04 1020.80 1020.52 1020.23 1019.94 1019.68 1019.46 1019.28 1019.12 1018.99 1018.88 1018.77 1018.67 1018.57 1018.47 1018.34 1018.18 1017.97 1017.71 1017.41 1017.06 1016.70 1016.36
1021.28 1021.22 1021.23 1021.33 1021.52 1021.75 1021.97 1022.14 1022.22 1022.20 1022.11 1021.98 1021.84 1021.74 1021.67 1021.64 1021.62 1021.59 1021.50 1021.36 1021.16 1020.91 1020.63 1020.34 1020.08 1019.84 1019.64 1019.47 1019.33 1019.20 1019.08 1018.98 1018.88 1018.78 1018.67 1018.54 1018.36 1018.13 1017.84 1017.50 1017.13 1016.75 1016.39
1021.52 1021.49 1021.52 1021.64 1021.81 1022.02 1022.21 1022.36 1022.43 1022.42 1022.36 1022.27 1022.17 1022.08 1022.02 1021.96 1021.89 1021.79 1021.64 1021.44 1021.20 1020.94 1020.67 1020.42 1020.20 1020.01 1019.85 1019.71 1019.58 1019.46 1019.35 1019.24 1019.12 1019.01 1018.87 1018.70 1018.49 1018.22 1017.91 1017.54 1017.16 1016.78 1016.42
1021.83 1021.84 1021.89 1022.01 1022.17 1022.34 1022.49 1022.60 1022.65 1022.65 1022.60 1022.54 1022.48 1022.41 1022.34 1022.26 1022.14 1021.98 1021.77 1021.52 1021.25 1020.98 1020.74 1020.53 1020.36 1020.23 1020.11 1020.01 1019.90 1019.79 1019.66 1019.52 1019.38 1019.22 1019.04 1018.83 1018.57 1018.26 1017.91 1017.54 1017.15 1016.77 1016.43
1022.15 1022.20 1022.29 1022.41 1022.55 1022.68 1022.79 1022.85 1022.88 1022.87 1022.84 1022.81 1022.78 1022.74 1022.68 1022.58 1022.43 1022.22 1021.96 1021.67 1021.38 1021.12 1020.90 1020.73 1020.60 1020.52 1020.44 1020.36 1020.26 1020.14 1019.99 1019.82 1019.62 1019.41 1019.18 1018.91 1018.60 1018.25 1017.87 1017.48 1017.10 1016.74 1016.43
1022.44 1022.55 1022.67 1022.81 1022.93 1023.03 1023.09 1023.11 1023.10 1023.09 1023.08 1023.08 1023.09 1023.08 1023.05 1022.95 1022.79 1022.56 1022.28 1021.97 1021.67 1021.40 1021.20 1021.05 1020.95 1020.88 1020.82 1020.74 1020.63 1020.48 1020.29 1020.08 1019.84 1019.57 1019.28 1018.96 1018.60 1018.22 1017.81 1017.41 1017.03 1016.69 1016.39
1022.65 1022.83 1023.00 1023.16 1023.28 1023.35 1023.37 1023.36 1023.33 1023.31 1023.32 1023.36 1023.41 1023.45 1023.45 1023.38 1023.24 1023.01 1022.72 1022.40 1022.10 1021.83 1021.62 1021.47 1021.37 1021.29 1021.21 1021.10 1020.96 1020.77 1020.55 1020.29 1020.00 1019.70 1019.36 1019.00 1018.61 1018.20 1017.77 1017.36 1016.97 1016.64 1016.35
1022.79 1023.03 1023.26 1023.45 1023.57 1023.63 1023.63 1023.59 1023.56 1023.54 1023.57 1023.65 1023.75 1023.83 1023.88 1023.84 1023.72 1023.52 1023.24 1022.93 1022.63 1022.36 1022.13 1021.96 1021.83 1021.71 1021.58 1021.42 1021.23 1020.99 1020.72 1020.44 1020.12 1019.80 1019.44 1019.06 1018.66 1018.23 1017.79 1017.36 1016.96 1016.60 1016.31
1022.85 1023.17 1023.45 1023.68 1023.82 1023.87 1023.86 1023.82 1023.78 1023.78 1023.83 1023.94 1024.07 1024.20 1024.28 1024.29 1024.20 1024.03 1023.78 1023.48 1023.19 1022.91 1022.67 1022.46 1022.27 1022.08 1021.89 1021.66 1021.41 1021.13 1020.83 1020.52 1020.21 1019.88 1019.54 1019.17 1018.77 1018.34 1017.88 1017.44 1017.01 1016.62 1016.29
1022.87 1023.25 1023.59 1023.85 1024.01 1024.08 1024.08 1024.04 1024.01 1024.02 1024.09 1024.21 1024.37 1024.52 1024.63 1024.66 1024.61 1024.47 1024.24 1023.98 1023.70 1023.42 1023.15 1022.90 1022.65 1022.39 1022.12 1021.82 1021.51 1021.19 1020.87 1020.57 1020.27 1019.98 1019.67 1019.33 1018.96 1018.54 1018.08 1017.61 1017.14 1016.71 1016.31
1022.86 1023.29 1023.68 1023.97 1024.16 1024.26 1024.28 1024.26 1024.25 1024.27 1024.34 1024.47 1024.62 1024.77 1024.88 1024.93 1024.89 1024.78 1024.59 1024.36 1024.10 1023.82 1023.54 1023.25 1022.95 1022.63 1022.29 1021.93 1021.56 1021.22 1020.89 1020.60 1020.34 1020.09 1019.84 1019.55 1019.21 1018.82 1018.37 1017.88 1017.37 1016.87 1016.40
1022.84 1023.31 1023.72 1024.04 1024.26 1024.39 1024.45 1024.47 1024.48 1024.51 1024.59 1024.70 1024.83 1024.95 1025.04 1025.08 1025.05 1024.95 1024.80 1024.60 1024.36 1024.11 1023.83 1023.52 1023.19 1022.81 1022.42 1022.01 1021.61 1021.24 1020.92 1020.66 1020.44 1020.24 1020.04 1019.81 1019.52 1019.16 1018.72 1018.21 1017.67 1017.10 1016.56
1022.80 1023.28 1023.71 1024.05 1024.31 1024.48 1024.59 1024.65 1024.69 1024.75 1024.82 1024.91 1025.00 1025.08 1025.13 1025.13 1025.09 1025.00 1024.87 1024.71 1024.52 1024.30 1024.04 1023.73 1023.38 1022.98 1022.56 1022.12 1021.70 1021.32 1021.01 1020.76 1020.58 1020.43 1020.28 1020.09 1019.85 1019.51 1019.09 1018.58 1018.01 1017.40 1016.78
1022.74 1023.22 1023.65 1024.01 1024.30 1024.52 1024.68 1024.79 1024.89 1024.97 1025.04 1025.11 1025.16 1025.18 1025.18 1025.15 1025.08 1025.00 1024.89 1024.76 1024.61 1024.43 1024.20 1023.92 1023.57 1023.18 1022.74 1022.29 1021.87 1021.49 1021.18 1020.94 1020.78 1020.65 1020.53 1020.38 1020.16 1019.85 1019.44 1018.94 1018.36 1017.72 1017.05
1022.65 1023.11 1023.53 1023.90 1024.22 1024.49 1024.71 1024.90 1025.05 1025.16 1025.25 1025.31 1025.32 1025.30 1025.25 1025.17 1025.09 1025.00 1024.90 1024.81 1024.70 1024.56 1024.37 1024.12 1023.80 1023.42 1022.99 1022.56 1022.13 1021.76 1021.45 1021.22 1021.05 1020.92 1020.80 1020.65 1020.44 1020.14 1019.75 1019.26 1018.68 1018.04 1017.35
1022.52 1022.96 1023.37 1023.75 1024.09 1024.41 1024.70 1024.95 1025.17 1025.34 1025.45 1025.51 1025.50 1025.45 1025.36 1025.26 1025.15 1025.05 1024.97 1024.90 1024.82 1024.72 1024.57 1024.35 1024.07 1023.72 1023.32 1022.91 1022.50 1022.14 1021.83 1021.59 1021.40 1021.24 1021.08 1020.91 1020.68 1020.37 1019.99 1019.51 1018.95 1018.32 1017.63
1022.37 1022.79 1023.19 1023.57 1023.94 1024.30 1024.64 1024.96 1025.25 1025.48 1025.63 1025.71 1025.71 1025.64 1025.54 1025.42 1025.30 1025.20 1025.13 1025.07 1025.01 1024.93 1024.81 1024.63 1024.38 1024.06 1023.71 1023.33 1022.96 1022.62 1022.31 1022.05 1021.83 1021.62 1021.41 1021.17 1020.90 1020.56 1020.16 1019.69 1019.15 1018.54 1017.87
1022.19 1022.61 1023.00 1023.39 1023.78 1024.17 1024.57 1024.95 1025.30 1025.58 1025.78 1025.89 1025.92 1025.87 1025.77 1025.65 1025.53 1025.44 1025.36 1025.31 1025.26 1025.19 1025.08 1024.92 1024.70 1024.43 1024.13 1023.80 1023.48 1023.17 1022.88 1022.60 1022.34 1022.07 1021.78 1021.46 1021.11 1020.72 1020.28 1019.80 1019.27 1018.68 1018.04
1021.98 1022.42 1022.84 1023.24 1023.64 1024.07 1024.50 1024.93 1025.32 1025.66 1025.91 1026.06 1026.12 1026.09 1026.02 1025.92 1025.82 1025.73 1025.66 1025.60 1025.54 1025.46 1025.35 1025.20 1025.02 1024.80 1024.55 1024.29 1024.03 1023.77 1023.50 1023.22 1022.92 1022.58 1022.20 1021.79 1021.34 1020.87 1020.37 1019.86 1019.32 1018.75 1018.14
1021.72 1022.23 1022.69 1023.12 1023.56 1024.01 1024.47 1024.92 1025.35 1025.71 1026.00 1026.18 1026.28 1026.30 1026.26 1026.19 1026.11 1026.03 1025.96 1025.89 1025.82 1025.72 1025.61 1025.47 1025.30 1025.12 1024.94 1024.76 1024.57 1024.37 1024.14 1023.87 1023.54 1023.14 1022.68 1022.16 1021.60 1021.03 1020.45 1019.88 1019.32 1018.76 1018.16
1021.42 1022.02 1022.55 1023.04 1023.51 1023.99 1024.47 1024.93 1025.37 1025.75 1026.06 1026.27 1026.40 1026.46 1026.46 1026.43 1026.38 1026.32 1026.25 1026.17 1026.08 1025.96 1025.83 1025.69 1025.54 1025.41 1025.29 1025.18 1025.07 1024.94 1024.76 1024.51 1024.17 1023.72 1023.17 1022.55 1021.88 1021.20 1020.53 1019.90 1019.30 1018.72 1018.13
1021.03 1021.76 1022.40 1022.97 1023.50 1024.01 1024.50 1024.97 1025.41 1025.79 1026.10 1026.33 1026.49 1026.58 1026.62 1026.62 1026.60 1026.56 1026.50 1026.41 1026.30 1026.17 1026.02 1025.88 1025.74 1025.64 1025.58 1025.54 1025.51 1025.45 1025.32 1025.09 1024.74 1024.25 1023.64 1022.92 1022.15 1021.37 1020.62 1019.91 1019.26 1018.65 1018.06
1020.55 1021.44 1022.21 1022.88 1023.48 1024.03 1024.55 1025.02 1025.46 1025.83 1026.14 1026.37 1026.54 1026.66 1026.73 1026.77 1026.78 1026.76 1026.71 1026.62 1026.50 1026.36 1026.20 1026.04 1025.92 1025.85 1025.82 1025.84 1025.86 1025.85 1025.77 1025.56 1025.21 1024.69 1024.02 1023.24 1022.39 1021.53 1020.69 1019.92 1019.21 1018.58 1017.97
Thickness
5754 5756 5755 5753 5752 5751 5749 5748 5747 5746 5745 5744 5743 5742 5741 5741 5739 5738 5738 5737 5736 5735 5734 5734 5732 5732 5731 5730 5729 5728 5727 5726 5725 5725 5724 5724 5723 5722 5721 5720 5718 5717 5716
5757 5755 5753 5751 5750 5748 5747 5746 5745 5743 5742 5741 5740 5739 5738 5737 5736 5735 5734 5734 5733 5732 5731 5730 5729 5728 5727 5726 5725 5724 5723 5722 5721 5721 5720 5719 5718 5718 5717 5716 5714 5713 5712
5754 5752 5750 5749 5747 5746 5744 5743 5742 5740 5739 5738 5737 5735 5734 5733 5733 5732 5731 5730 5729 5728 5727 5726 5725 5724 5723 5722 5721 5720 5719 5718 5717 5716 5715 5715 5714 5713 5712 5711 5710 5709 5708
5751 5749 5747 5745 5744 5742 5741 5739 5738 5737 5735 5734 5733 5732 5731 5730 5729 5728 5727 5726 5725 5724 5722 5721 5720 5719 5718 5718 5717 5716 5715 5714 5713 5712 5711 5710 5710 5709 5708 5707 5706 5704 5703
5746 5744 5743 5741 5740 5738 5737 5736 5734 5733 5732 5730 5729 5728 5727 5726 5725 5724 5723 5722 5720 5719 5718 5717 5716 5715 5714 5714 5713 5712 5711 5710 5709 5707 5706 5706 5705 5705 5704 5702 5701 5700 5699
5741 5740 5738 5737 5735 5734 5733 5731 5730 5729 5727 5726 5725 5724 5723 5722 5721 5719 5718 5717 5716 5715 5714 5712 5711 5711 5710 5709 5709 5707 5707 5705 5704 5703 5702 5701 5700 5700 5699 5698 5697 5695 5694
5735 5734 5733 5732 5730 5729 5728 5726 5725 5724 5723 5722 5721 5720 5719 5718 5716 5715 5714 5713 5711 5710 5709 5708 5707 5706 5706 5705 5704 5703 5702 5701 5699 5698 5697 5696 5696 5695 5694 5693 5691 5690 5689
5729 5728 5727 5726 5725 5724 5723 5721 5721 5720 5719 5718 5717 5715 5714 5713 5712 5710 5709 5708 5707 5706 5705 5704 5703 5702 5701 5700 5699 5698 5697 5696 5694 5693 5692 5691 5690 5690 5689 5687 5686 5685 5684
5722 5722 5721 5720 5719 5719 5718 5716 5715 5714 5714 5713 5712 5710 5709 5708 5707 5705 5704 5703 5702 5701 5700 5699 5698 5697 5696 5695 5694 5693 5692 5690 5689 5688 5687 5686 5685 5685 5683 5682 5681 5679 5678
5714 5714 5714 5714 5713 5713 5712 5711 5710 5709 5708 5707 5706 5705 5704 5703 5701 5700 5699 5698 5697 5696 5695 5694 5693 5692 5691 5690 5689 5688 5686 5685 5683 5682 5681 5680 5680 5679 5678 5676 5675 5673 5672
5705 5706 5707 5707 5707 5707 5706 5705 5704 5703 5702 5701 5700 5699 5698 5697 5696 5694 5693 5692 5691 5690 5689 5689 5688 5687 5685 5684 5683 5682 5681 5679 5677 5676 5675 5674 5673 5672 5671 5670 5668 5666 5665
5697 5699 5700 5700 5700 5700 5700 5698 5697 5696 5696 5695 5694 5693 5692 5691 5690 5689 5688 5687 5686 5685 5684 5683 5682 5681 5680 5678 5677 5676 5674 5673 5671 5670 5668 5667 5666 5665 5664 5662 5661 5659 5658
5692 5692 5693 5694 5694 5694 5694 5692 5691 5690 5690 5689 5688 5687 5686 5685 5684 5682 5682 5681 5680 5679 5678 5677 5676 5675 5674 5673 5671 5670 5668 5666 5664 5662 5661 5660 5659 5658 5656 5655 5653 5652 5651
5685 5685 5687 5688 5688 5688 5688 5687 5685 5684 5684 5683 5682 5681 5680 5679 5677 5676 5675 5674 5673 5673 5672 5671 5670 5669 5668 5666 5665 5663 5661 5659 5657 5655 5653 5652 5651 5650 5648 5647 5645 5644 5642
5677 5678 5680 5681 5682 5681 5681 5680 5679 5679 5678 5677 5676 5675 5675 5673 5671 5670 5669 5668 5667 5667 5666 5665 5664 5663 5662 5660 5658 5657 5654 5652 5649 5647 5646 5644 5643 5641 5640 5638 5637 5635 5634
5669 5670 5672 5674 5675 5675 5675 5674 5674 5673 5672 5671 5670 5669 5669 5668 5666 5665 5663 5662 5661 5660 5660 5659 5658 5657 5655 5653 5651 5649 5647 5645 5642 5640 5638 5636 5634 5633 5631 5629 5628 5626 5625
5661 5663 5664 5666 5667 5668 5668 5667 5667 5666 5666 5664 5663 5663 5662 5661 5660 5658 5657 5655 5654 5654 5653 5652 5651 5650 5648 5646 5644 5642 5640 5638 5635 5633 5630 5628 5626 5623 5622 5620 5618 5617 5615
5653 5655 5657 5659 5660 5660 5660 5660 5659 5659 5659 5657 5656 5656 5655 5654 5653 5652 5650 5649 5648 5647 5646 5645 5643 5641 5639 5638 5636 5634 5632 5630 5627 5625 5622 5620 5617 5614 5612 5610 5608 5607 5605
5644 5647 5648 5650 5652 5652 5652 5652 5651 5651 5650 5650 5649 5648 5648 5647 5646 5645 5643 5642 5641 5640 5639 5638 5635 5634 5631 5630 5628 5626 5624 5621 5619 5616 5614 5611 5608 5605 5603 5601 5598 5596 5595
5635 5637 5639 5641 5642 5642 5642 5642 5641 5641 5642 5642 5642 5641 5641 5640 5639 5638 5636 5635 5634 5632 5631 5630 5627 5626 5623 5622 5621 5618 5615 5613 5610 5607 5605 5601 5599 5596 5594 5591 5589 5586 5584
5624 5626 5629 5630 5632 5633 5632 5632 5632 5632 5632 5633 5633 5633 5633 5632 5631 5631 5629 5628 5627 5625 5623 5622 5620 5617 5614 5613 5611 5607 5605 5604 5602 5599 5596 5593 5590 5587 5584 5582 5579 5576 5574
5613 5616 5618 5621 5623 5625 5626 5626 5626 5624 5624 5625 5625 5624 5625 5625 5624 5623 5622 5620 5619 5617 5615 5614 5612 5608 5606 5604 5601 5597 5594 5593 5592 5591 5587 5584 5581 5578 5575 5572 5569 5566 5563
5604 5607 5610 5611 5614 5616 5617 5616 5615 5614 5614 5614 5614 5615 5616 5616 5616 5615 5614 5613 5611 5610 5608 5606 5604 5602 5597 5594 5593 5589 5585 5582 5580 5580 5578 5575 5571 5568 5565 5562 5560 5557 5553
5594 5597 5600 5602 5604 5606 5608 5608 5609 5608 5607 5607 5607 5607 5607 5608 5608 5607 5606 5605 5604 5602 5600 5599 5597 5594 5591 5586 5583 5580 5577 5574 5570 5568 5568 5565 5562 5559 5556 5554 5551 5548 5545
5582 5586 5589 5592 5594 5596 5598 5600 5601 5601 5600 5599 5598 5598 5598 5598 5599 5599 5598 5597 5595 5594 5592 5591 5588 5586 5583 5579 5575 5571 5568 5564 5560 5557 5556 5555 5553 5551 5548 5545 5543 5539 5536
5570 5574 5578 5581 5584 5586 5588 5590 5592 5592 5591 5590 5589 5589 5589 5589 5590 5590 5589 5588 5587 5586 5584 5582 5580 5578 5575 5571 5568 5564 5561 5557 5552 5548 5545 5544 5542 5542 5541 5538 5535 5531 5528